| time (UTC) | temp F | wind direction | speed knots | gust knots | rain 1hr in | rain 24hr in | rain mn in | humidity % | barometer mb |
| 20260506002507 | 77 | 330 | 0.9 | 4.3 | 0.00 | 0.00 | 0.00 | 50 | 1004.2 |
| 20260506002003 | 78 | 1 | 1.7 | 4.3 | 0.00 | 0.00 | 0.00 | 49 | 1004.4 |
| 20260506001503 | 78 | 338 | 0.9 | 6.1 | 0.00 | 0.00 | 0.00 | 49 | 1004.4 |
| 20260506001002 | 78 | 353 | 1.7 | 6.1 | 0.00 | 0.00 | 0.00 | 48 | 1004.4 |
| 20260506000503 | 79 | 20 | 0.9 | 7.0 | 0.00 | 0.00 | 0.00 | 48 | 1004.1 |
| 20260506000125 | 79 | 355 | 2.6 | 7.0 | 0.00 | 0.00 | 0.00 | 48 | 1003.7 |
| 20260505235501 | 80 | 352 | 1.7 | 3.5 | 0.00 | 0.00 | 0.00 | 48 | 1003.6 |
| 20260505235100 | 80 | 4 | 1.7 | 5.2 | 0.00 | 0.00 | 0.00 | 47 | 1003.5 |
| 20260505234057 | 81 | 347 | 1.7 | 8.7 | 0.00 | 0.00 | 0.00 | 46 | 1003.5 |
| 20260505233556 | 82 | 339 | 2.6 | 9.6 | 0.00 | 0.00 | 0.00 | 45 | 1003.6 |
| 20260505233056 | 83 | 18 | 3.5 | 9.6 | 0.00 | 0.00 | 0.00 | 44 | 1003.6 |
| 20260505232556 | 84 | 5 | 1.7 | 7.0 | 0.00 | 0.00 | 0.00 | 42 | 1003.4 |
| 20260505232054 | 84 | 5 | 2.6 | 7.0 | 0.00 | 0.00 | 0.00 | 40 | 1003.3 |
| 20260505231558 | 85 | 13 | 0.9 | 7.0 | 0.00 | 0.00 | 0.00 | 40 | 1003.2 |
| 20260505231053 | 85 | 320 | 0.9 | 7.0 | 0.00 | 0.00 | 0.00 | 38 | 1003.1 |
| 20260505230554 | 86 | 338 | 3.5 | 6.1 | 0.00 | 0.00 | 0.00 | 37 | 1002.9 |
| 20260505230052 | 87 | 300 | 0.9 | 4.3 | 0.00 | 0.00 | 0.00 | 36 | 1002.8 |
| 20260505225551 | 89 | 341 | 0.9 | 4.3 | 0.00 | 0.00 | 0.00 | 41 | 1002.6 |
| 20260505225050 | 89 | 144 | 0.0 | 4.3 | 0.00 | 0.00 | 0.00 | 42 | 1002.6 |
| 20260505224052 | 88 | 155 | 0.0 | 4.3 | 0.00 | 0.00 | 0.00 | 42 | 1002.6 |
| 20260505223548 | 88 | 153 | 0.9 | 3.5 | 0.00 | 0.00 | 0.00 | 42 | 1002.5 |
| 20260505223048 | 89 | 162 | 0.0 | 4.3 | 0.00 | 0.00 | 0.00 | 41 | 1002.4 |
| 20260505222548 | 89 | 204 | 0.9 | 4.3 | 0.00 | 0.00 | 0.00 | 39 | 1002.3 |
| 20260505222047 | 89 | 158 | 0.0 | 1.7 | 0.00 | 0.00 | 0.00 | 41 | 1002.3 |
| 20260505221555 | 89 | 143 | 0.0 | 7.0 | 0.00 | 0.00 | 0.00 | 40 | 1002.2 |
| 20260505221046 | 89 | 172 | 0.9 | 7.0 | 0.00 | 0.00 | 0.00 | 41 | 1002.3 |
| 20260505220545 | 89 | 100 | 0.0 | 2.6 | 0.00 | 0.00 | 0.00 | 41 | 1002.3 |
| 20260505215543 | 89 | 86 | 0.0 | 2.6 | 0.00 | 0.00 | 0.00 | 42 | 1002.5 |
| 20260505215042 | 89 | 196 | 0.0 | 2.6 | 0.00 | 0.00 | 0.00 | 41 | 1002.5 |
| 20260505214042 | 89 | 203 | 0.0 | 3.5 | 0.00 | 0.00 | 0.00 | 40 | 1002.5 |
| 20260505213542 | 90 | 154 | 0.0 | 3.5 | 0.00 | 0.00 | 0.00 | 39 | 1002.5 |
| 20260505213040 | 90 | 242 | 0.0 | 4.3 | 0.00 | 0.00 | 0.00 | 43 | 1002.6 |
| 20260505212540 | 90 | 110 | 0.0 | 5.2 | 0.00 | 0.00 | 0.00 | 41 | 1002.6 |
| 20260505212039 | 89 | 131 | 1.7 | 5.2 | 0.00 | 0.00 | 0.00 | 43 | 1002.7 |
| 20260505211607 | 90 | 124 | 0.0 | 2.6 | 0.00 | 0.00 | 0.00 | 41 | 1002.7 |
| 20260505211038 | 89 | 26 | 0.0 | 2.6 | 0.00 | 0.00 | 0.00 | 43 | 1002.8 |
| 20260505210536 | 90 | 144 | 0.9 | 3.5 | 0.00 | 0.00 | 0.00 | 42 | 1002.8 |
| 20260505210042 | 90 | 136 | 0.9 | 5.2 | 0.00 | 0.00 | 0.00 | 42 | 1002.7 |
| 20260505205535 | 90 | 100 | 0.0 | 5.2 | 0.00 | 0.00 | 0.00 | 44 | 1002.9 |
| 20260505205036 | 90 | 185 | 0.9 | 5.2 | 0.00 | 0.00 | 0.00 | 43 | 1003.0 |
| 20260505204035 | 89 | 215 | 0.9 | 5.2 | 0.00 | 0.00 | 0.00 | 43 | 1003.1 |
| 20260505203531 | 89 | 127 | 1.7 | 5.2 | 0.00 | 0.00 | 0.00 | 44 | 1003.3 |
| 20260505203032 | 89 | 141 | 0.9 | 7.0 | 0.00 | 0.00 | 0.00 | 44 | 1003.4 |
| 20260505202530 | 88 | 145 | 1.7 | 7.0 | 0.00 | 0.00 | 0.00 | 44 | 1003.2 |
| 20260505202033 | 89 | 165 | 0.9 | 5.2 | 0.00 | 0.00 | 0.00 | 45 | 1003.4 |
| 20260505201530 | 89 | 140 | 0.9 | 5.2 | 0.00 | 0.00 | 0.00 | 44 | 1003.4 |
| 20260505201027 | 89 | 156 | 0.0 | 6.1 | 0.00 | 0.00 | 0.00 | 46 | 1003.5 |
| 20260505200526 | 89 | 181 | 1.7 | 6.1 | 0.00 | 0.00 | 0.00 | 45 | 1003.4 |
| 20260505200025 | 88 | 176 | 1.7 | 4.3 | 0.00 | 0.00 | 0.00 | 44 | 1003.5 |
| 20260505195523 | 88 | 141 | 0.9 | 6.1 | 0.00 | 0.00 | 0.00 | 45 | 1003.5 |
| 20260505195022 | 88 | 30 | 1.7 | 4.3 | 0.00 | 0.00 | 0.00 | 46 | 1003.5 |
| 20260505194032 | 87 | 247 | 0.9 | 5.2 | 0.00 | 0.00 | 0.00 | 46 | 1003.6 |
| 20260505193522 | 88 | 288 | 0.9 | 5.2 | 0.00 | 0.00 | 0.00 | 46 | 1003.6 |
| 20260505193021 | 87 | 146 | 1.7 | 3.5 | 0.00 | 0.00 | 0.00 | 45 | 1003.6 |
| 20260505192520 | 87 | 202 | 0.9 | 4.3 | 0.00 | 0.00 | 0.00 | 46 | 1003.6 |
| 20260505192019 | 87 | 111 | 0.9 | 4.3 | 0.00 | 0.00 | 0.00 | 46 | 1003.7 |
| 20260505191519 | 86 | 341 | 0.9 | 4.3 | 0.00 | 0.00 | 0.00 | 47 | 1003.6 |
| 20260505191016 | 86 | 216 | 1.7 | 6.1 | 0.00 | 0.00 | 0.00 | 48 | 1003.6 |
| 20260505190513 | 85 | 261 | 1.7 | 6.1 | 0.00 | 0.00 | 0.00 | 48 | 1003.6 |
| 20260505190013 | 85 | 101 | 0.9 | 3.5 | 0.00 | 0.00 | 0.00 | 49 | 1003.7 |
| 20260505185513 | 85 | 168 | 0.9 | 3.5 | 0.00 | 0.00 | 0.00 | 49 | 1003.7 |
| 20260505185009 | 84 | 142 | 1.7 | 3.5 | 0.00 | 0.00 | 0.00 | 50 | 1003.8 |
| 20260505184007 | 83 | 153 | 1.7 | 5.2 | 0.00 | 0.00 | 0.00 | 51 | 1003.8 |
| 20260505183505 | 83 | 143 | 0.9 | 7.0 | 0.00 | 0.00 | 0.00 | 50 | 1003.9 |
| 20260505183003 | 83 | 112 | 1.7 | 7.0 | 0.00 | 0.00 | 0.00 | 50 | 1003.8 |
| 20260505182503 | 83 | 97 | 2.6 | 7.0 | 0.00 | 0.00 | 0.00 | 50 | 1003.8 |
| 20260505182001 | 83 | 104 | 1.7 | 5.2 | 0.00 | 0.00 | 0.00 | 51 | 1003.8 |
| 20260505181641 | 83 | 86 | 0.9 | 7.0 | 0.00 | 0.00 | 0.00 | 51 | 1003.9 |
| 20260505181100 | 83 | 103 | 2.6 | 7.0 | 0.00 | 0.00 | 0.00 | 50 | 1003.9 |
| 20260505180559 | 83 | 213 | 1.7 | 5.2 | 0.00 | 0.00 | 0.00 | 50 | 1003.8 |
| 20260505180502 | 83 | 214 | 2.6 | 5.2 | 0.00 | 0.00 | 0.00 | 50 | 1003.8 |
| 20260505180106 | 83 | 202 | 1.7 | 6.1 | 0.00 | 0.00 | 0.00 | 50 | 1003.9 |
| 20260505175558 | 83 | 151 | 2.6 | 6.1 | 0.00 | 0.00 | 0.00 | 50 | 1003.8 |
| 20260505175056 | 83 | 153 | 0.9 | 4.3 | 0.00 | 0.00 | 0.00 | 51 | 1003.7 |
| 20260505174656 | 82 | 164 | 2.6 | 9.6 | 0.00 | 0.00 | 0.00 | 51 | 1003.9 |
| 20260505174005 | 82 | 177 | 1.7 | 9.6 | 0.00 | 0.00 | 0.00 | 51 | 1003.9 |
| 20260505173601 | 82 | 142 | 1.7 | 9.6 | 0.00 | 0.00 | 0.00 | 52 | 1004.0 |
| 20260505173058 | 82 | 149 | 2.6 | 6.1 | 0.00 | 0.00 | 0.00 | 52 | 1004.0 |
| 20260505172557 | 82 | 84 | 1.7 | 6.1 | 0.00 | 0.00 | 0.00 | 51 | 1004.0 |
| 20260505172055 | 81 | 165 | 1.7 | 5.2 | 0.00 | 0.00 | 0.00 | 52 | 1004.1 |
| 20260505171601 | 81 | 95 | 1.7 | 6.1 | 0.00 | 0.00 | 0.00 | 52 | 1004.1 |
| 20260505171053 | 81 | 150 | 2.6 | 6.1 | 0.00 | 0.00 | 0.00 | 52 | 1004.1 |
| 20260505170652 | 81 | 136 | 0.9 | 5.2 | 0.00 | 0.00 | 0.00 | 52 | 1004.2 |
| 20260505170052 | 80 | 202 | 1.7 | 7.0 | 0.00 | 0.00 | 0.00 | 52 | 1004.2 |
| 20260505165550 | 81 | 113 | 2.6 | 7.0 | 0.00 | 0.00 | 0.00 | 52 | 1004.2 |
| 20260505165049 | 80 | 245 | 0.9 | 5.2 | 0.00 | 0.00 | 0.00 | 53 | 1004.1 |
| 20260505164648 | 80 | 178 | 0.9 | 6.1 | 0.00 | 0.00 | 0.00 | 53 | 1004.2 |
| 20260505164042 | 80 | 183 | 0.9 | 6.1 | 0.00 | 0.00 | 0.00 | 53 | 1004.1 |
| 20260505163544 | 80 | 127 | 1.7 | 9.6 | 0.00 | 0.00 | 0.00 | 53 | 1004.1 |
| 20260505163040 | 80 | 224 | 2.6 | 9.6 | 0.00 | 0.00 | 0.00 | 52 | 1004.1 |
| 20260505162538 | 80 | 120 | 3.5 | 9.6 | 0.00 | 0.00 | 0.00 | 53 | 1003.9 |
| 20260505162039 | 80 | 172 | 1.7 | 9.6 | 0.00 | 0.00 | 0.00 | 53 | 1004.0 |
| 20260505161537 | 80 | 144 | 2.6 | 9.6 | 0.00 | 0.00 | 0.00 | 52 | 1004.0 |
| 20260505161037 | 80 | 153 | 2.6 | 9.6 | 0.00 | 0.00 | 0.00 | 52 | 1003.9 |
| 20260505160535 | 80 | 173 | 0.9 | 5.2 | 0.00 | 0.00 | 0.00 | 54 | 1003.8 |
| 20260505153038 | 78 | 226 | 1.7 | 10.4 | 0.00 | 0.00 | 0.00 | 54 | 1003.7 |
| 20260505152527 | 78 | 323 | 2.6 | 10.4 | 0.00 | 0.00 | 0.00 | 54 | 1003.7 |
| 20260505152025 | 77 | 145 | 3.5 | 11.3 | 0.00 | 0.00 | 0.00 | 54 | 1003.8 |
| 20260505151524 | 77 | 72 | 3.5 | 11.3 | 0.00 | 0.00 | 0.00 | 54 | 1003.9 |
| 20260505151022 | 77 | 140 | 2.6 | 5.2 | 0.00 | 0.00 | 0.00 | 54 | 1004.0 |
| 20260505150522 | 76 | 270 | 1.7 | 7.0 | 0.00 | 0.00 | 0.00 | 55 | 1003.9 |
| 20260505140510 | 73 | 153 | 0.9 | 7.0 | 0.00 | 0.00 | 0.00 | 58 | 1004.1 |
| 20260505124556 | 72 | 192 | 1.7 | 7.8 | 0.00 | 0.00 | 0.00 | 59 | 1003.5 |
| 20260505124057 | 72 | 68 | 1.7 | 6.1 | 0.00 | 0.00 | 0.00 | 59 | 1003.6 |
| 20260505123657 | 72 | 203 | 0.9 | 4.3 | 0.00 | 0.00 | 0.00 | 59 | 1003.5 |
| 20260505123059 | 72 | 145 | 1.7 | 6.1 | 0.00 | 0.00 | 0.00 | 59 | 1003.2 |
| 20260505122555 | 71 | 154 | 0.9 | 7.0 | 0.00 | 0.00 | 0.00 | 59 | 1003.1 |
| 20260505122053 | 71 | 231 | 1.7 | 11.3 | 0.00 | 0.00 | 0.00 | 59 | 1003.1 |
| 20260505121553 | 71 | 217 | 1.7 | 11.3 | 0.00 | 0.00 | 0.00 | 60 | 1003.2 |
| 20260505121052 | 71 | 236 | 0.0 | 6.1 | 0.00 | 0.00 | 0.00 | 60 | 1003.3 |
| 20260505120555 | 71 | 133 | 1.7 | 6.1 | 0.00 | 0.00 | 0.00 | 60 | 1003.2 |
| 20260505120110 | 71 | 243 | 1.7 | 4.3 | 0.00 | 0.00 | 0.00 | 60 | 1003.3 |
| 20260505115550 | 71 | 252 | 0.9 | 3.5 | 0.00 | 0.00 | 0.00 | 60 | 1003.0 |
| 20260505115049 | 71 | 176 | 0.9 | 7.8 | 0.00 | 0.00 | 0.00 | 59 | 1002.9 |
| 20260505114549 | 71 | 141 | 0.9 | 7.8 | 0.00 | 0.00 | 0.00 | 60 | 1002.9 |
| 20260505114051 | 71 | 128 | 1.7 | 7.8 | 0.00 | 0.00 | 0.00 | 60 | 1002.9 |
| 20260505113553 | 71 | 105 | 0.0 | 8.7 | 0.00 | 0.00 | 0.00 | 60 | 1003.2 |
| 20260505113051 | 71 | 163 | 0.0 | 9.6 | 0.00 | 0.00 | 0.00 | 60 | 1002.9 |
| 20260505112548 | 71 | 345 | 1.7 | 9.6 | 0.00 | 0.00 | 0.00 | 60 | 1002.9 |
| 20260505112049 | 71 | 140 | 0.9 | 6.1 | 0.00 | 0.00 | 0.00 | 60 | 1002.9 |
| 20260505111547 | 71 | 134 | 1.7 | 6.1 | 0.00 | 0.00 | 0.00 | 59 | 1003.0 |
| 20260505111048 | 71 | 215 | 0.9 | 7.0 | 0.00 | 0.00 | 0.00 | 59 | 1003.0 |
| 20260505110548 | 71 | 147 | 1.7 | 9.6 | 0.00 | 0.00 | 0.00 | 59 | 1003.0 |
| 20260505110106 | 71 | 168 | 2.6 | 9.6 | 0.00 | 0.00 | 0.00 | 59 | 1002.7 |
| 20260505102039 | 71 | 152 | 1.7 | 6.1 | 0.00 | 0.00 | 0.00 | 60 | 1003.1 |
| 20260505101538 | 71 | 200 | 0.9 | 5.2 | 0.00 | 0.00 | 0.00 | 59 | 1002.9 |
| 20260505101038 | 71 | 79 | 0.9 | 8.7 | 0.00 | 0.00 | 0.00 | 59 | 1003.0 |
| 20260505100536 | 71 | 247 | 0.9 | 8.7 | 0.00 | 0.00 | 0.00 | 59 | 1003.0 |
| 20260505100037 | 71 | 212 | 0.9 | 7.0 | 0.00 | 0.00 | 0.00 | 59 | 1002.9 |
| 20260505095535 | 71 | 155 | 0.9 | 7.0 | 0.00 | 0.00 | 0.00 | 59 | 1002.9 |
| 20260505095036 | 71 | 151 | 3.5 | 6.1 | 0.00 | 0.00 | 0.00 | 59 | 1003.1 |
| 20260505094534 | 71 | 137 | 1.7 | 11.3 | 0.00 | 0.00 | 0.00 | 59 | 1003.1 |
| 20260505094035 | 71 | 96 | 3.5 | 11.3 | 0.00 | 0.00 | 0.00 | 59 | 1003.2 |
| 20260505093535 | 71 | 181 | 2.6 | 7.0 | 0.00 | 0.00 | 0.00 | 59 | 1003.3 |
| 20260505093035 | 71 | 147 | 2.6 | 7.8 | 0.00 | 0.00 | 0.00 | 60 | 1003.2 |
| 20260505092534 | 71 | 177 | 2.6 | 7.8 | 0.00 | 0.00 | 0.00 | 60 | 1003.4 |
| 20260505092035 | 71 | 82 | 1.7 | 7.8 | 0.00 | 0.00 | 0.00 | 60 | 1003.5 |
| 20260505091533 | 71 | 139 | 1.7 | 7.8 | 0.00 | 0.00 | 0.00 | 60 | 1003.4 |
| 20260505091036 | 71 | 127 | 0.9 | 7.0 | 0.00 | 0.00 | 0.00 | 60 | 1003.4 |
| 20260505090531 | 71 | 181 | 0.9 | 7.0 | 0.00 | 0.00 | 0.00 | 60 | 1003.5 |
| 20260505090036 | 71 | 154 | 2.6 | 7.0 | 0.00 | 0.00 | 0.00 | 60 | 1003.5 |
| 20260505085530 | 71 | 153 | 1.7 | 7.8 | 0.00 | 0.00 | 0.00 | 60 | 1003.4 |
| 20260505085029 | 71 | 148 | 1.7 | 7.8 | 0.00 | 0.00 | 0.00 | 60 | 1003.6 |
| 20260505084531 | 71 | 132 | 1.7 | 8.7 | 0.00 | 0.00 | 0.00 | 60 | 1003.5 |
| 20260505084026 | 71 | 251 | 2.6 | 8.7 | 0.00 | 0.00 | 0.00 | 60 | 1003.5 |
| 20260505083529 | 71 | 122 | 3.5 | 8.7 | 0.00 | 0.00 | 0.00 | 61 | 1003.4 |
| 20260505083024 | 71 | 147 | 0.9 | 8.7 | 0.00 | 0.00 | 0.00 | 61 | 1003.5 |
| 20260505082525 | 71 | 191 | 2.6 | 8.7 | 0.00 | 0.00 | 0.00 | 61 | 1003.5 |
| 20260505082023 | 71 | 109 | 2.6 | 9.6 | 0.00 | 0.00 | 0.00 | 61 | 1003.5 |
| 20260505081623 | 71 | 139 | 1.7 | 9.6 | 0.00 | 0.00 | 0.00 | 61 | 1003.5 |
| 20260505081024 | 71 | 127 | 1.7 | 7.8 | 0.00 | 0.00 | 0.00 | 61 | 1003.6 |
| 20260505080520 | 71 | 231 | 0.9 | 7.8 | 0.00 | 0.00 | 0.00 | 61 | 1003.5 |
| 20260505080020 | 71 | 215 | 2.6 | 7.0 | 0.00 | 0.00 | 0.00 | 60 | 1003.6 |
| 20260505075516 | 71 | 153 | 2.6 | 7.8 | 0.00 | 0.00 | 0.00 | 60 | 1003.7 |
| 20260505075016 | 71 | 189 | 0.9 | 7.8 | 0.00 | 0.00 | 0.00 | 60 | 1003.7 |
| 20260505074515 | 71 | 116 | 1.7 | 9.6 | 0.00 | 0.00 | 0.00 | 60 | 1003.9 |
| 20260505074017 | 71 | 189 | 2.6 | 9.6 | 0.00 | 0.00 | 0.00 | 60 | 1003.9 |
| 20260505073515 | 72 | 124 | 1.7 | 7.8 | 0.00 | 0.00 | 0.00 | 60 | 1003.9 |
| 20260505073015 | 72 | 195 | 0.9 | 7.8 | 0.00 | 0.00 | 0.00 | 60 | 1004.0 |
| 20260505072513 | 72 | 163 | 1.7 | 7.8 | 0.00 | 0.00 | 0.00 | 60 | 1004.1 |
| 20260505072012 | 72 | 238 | 0.9 | 7.0 | 0.00 | 0.00 | 0.00 | 60 | 1004.3 |
| 20260505071512 | 72 | 158 | 1.7 | 7.0 | 0.00 | 0.00 | 0.00 | 60 | 1004.3 |
| 20260505071011 | 72 | 231 | 0.9 | 7.0 | 0.00 | 0.00 | 0.00 | 60 | 1004.3 |
| 20260505070510 | 72 | 215 | 1.7 | 11.3 | 0.00 | 0.00 | 0.00 | 60 | 1004.4 |
| 20260505070012 | 72 | 136 | 3.5 | 11.3 | 0.00 | 0.00 | 0.00 | 60 | 1004.3 |
| 20260505065507 | 72 | 105 | 1.7 | 8.7 | 0.00 | 0.00 | 0.00 | 60 | 1004.5 |
| 20260505065008 | 72 | 202 | 0.9 | 7.0 | 0.00 | 0.00 | 0.00 | 59 | 1004.5 |
| 20260505064508 | 72 | 122 | 0.9 | 6.1 | 0.00 | 0.00 | 0.00 | 59 | 1004.7 |
| 20260505064008 | 72 | 160 | 0.9 | 6.1 | 0.00 | 0.00 | 0.00 | 59 | 1004.7 |
| 20260505063503 | 72 | 257 | 0.9 | 5.2 | 0.00 | 0.00 | 0.00 | 59 | 1004.8 |
| 20260505063003 | 72 | 144 | 0.9 | 5.2 | 0.00 | 0.00 | 0.00 | 59 | 1004.7 |
| 20260505062603 | 72 | 145 | 0.0 | 5.2 | 0.00 | 0.00 | 0.00 | 59 | 1004.7 |
| 20260505062002 | 72 | 103 | 1.7 | 7.8 | 0.00 | 0.00 | 0.00 | 59 | 1004.8 |
| 20260505061502 | 72 | 120 | 0.9 | 9.6 | 0.00 | 0.00 | 0.00 | 59 | 1004.7 |
| 20260505061059 | 72 | 138 | 1.7 | 9.6 | 0.00 | 0.00 | 0.00 | 59 | 1004.8 |
| 20260505060606 | 72 | 240 | 0.9 | 9.6 | 0.00 | 0.00 | 0.00 | 58 | 1004.7 |
| 20260505060057 | 72 | 170 | 3.5 | 9.6 | 0.00 | 0.00 | 0.00 | 58 | 1004.7 |
| 20260505055557 | 73 | 129 | 1.7 | 8.7 | 0.00 | 0.00 | 0.00 | 58 | 1004.7 |
| 20260505055056 | 73 | 176 | 2.6 | 8.7 | 0.00 | 0.00 | 0.00 | 58 | 1004.7 |
| 20260505054554 | 73 | 153 | 1.7 | 7.0 | 0.00 | 0.00 | 0.00 | 58 | 1004.9 |
| 20260505053552 | 73 | 158 | 0.9 | 6.1 | 0.00 | 0.00 | 0.00 | 58 | 1004.9 |
| 20260505053050 | 73 | 111 | 1.7 | 5.2 | 0.00 | 0.00 | 0.00 | 57 | 1004.9 |
| 20260505052549 | 73 | 132 | 1.7 | 6.1 | 0.00 | 0.00 | 0.00 | 57 | 1005.0 |
| 20260505052049 | 73 | 167 | 1.7 | 7.0 | 0.00 | 0.00 | 0.00 | 57 | 1005.0 |
| 20260505051547 | 73 | 168 | 1.7 | 8.7 | 0.00 | 0.00 | 0.00 | 57 | 1005.0 |
| 20260505051046 | 73 | 153 | 1.7 | 8.7 | 0.00 | 0.00 | 0.00 | 56 | 1005.2 |
| 20260505050545 | 74 | 228 | 1.7 | 7.8 | 0.00 | 0.00 | 0.00 | 56 | 1005.3 |
| 20260505041540 | 74 | 80 | 0.9 | 6.1 | 0.00 | 0.00 | 0.00 | 55 | 1005.6 |
| 20260505041040 | 74 | 124 | 1.7 | 6.1 | 0.00 | 0.00 | 0.00 | 55 | 1005.5 |
| 20260505040543 | 74 | 172 | 1.7 | 7.0 | 0.00 | 0.00 | 0.00 | 55 | 1005.5 |
| 20260505040040 | 74 | 113 | 1.7 | 7.0 | 0.00 | 0.00 | 0.00 | 55 | 1005.6 |
| 20260505035539 | 74 | 250 | 0.9 | 7.0 | 0.00 | 0.00 | 0.00 | 55 | 1005.7 |
| 20260505035037 | 74 | 149 | 0.9 | 6.1 | 0.00 | 0.00 | 0.00 | 54 | 1005.5 |
| 20260505034543 | 75 | 227 | 1.7 | 7.0 | 0.00 | 0.00 | 0.00 | 54 | 1005.5 |
| 20260505033539 | 75 | 146 | 2.6 | 7.0 | 0.00 | 0.00 | 0.00 | 54 | 1005.4 |
| 20260505033039 | 75 | 154 | 1.7 | 6.1 | 0.00 | 0.00 | 0.00 | 53 | 1005.5 |
| 20260505032539 | 75 | 289 | 1.7 | 7.8 | 0.00 | 0.00 | 0.00 | 53 | 1005.6 |
| 20260505032037 | 75 | 49 | 1.7 | 7.8 | 0.00 | 0.00 | 0.00 | 53 | 1005.6 |
| 20260505031536 | 75 | 89 | 0.9 | 5.2 | 0.00 | 0.00 | 0.00 | 53 | 1005.5 |
| 20260505031038 | 75 | 1 | 1.7 | 7.8 | 0.00 | 0.00 | 0.00 | 53 | 1005.6 |
| 20260505030537 | 75 | 170 | 2.6 | 7.8 | 0.00 | 0.00 | 0.00 | 53 | 1005.6 |
| 20260505030045 | 75 | 153 | 2.6 | 7.0 | 0.00 | 0.00 | 0.00 | 53 | 1005.5 |
| 20260505025535 | 75 | 314 | 1.7 | 9.6 | 0.00 | 0.00 | 0.00 | 53 | 1005.6 |
| 20260505025034 | 75 | 214 | 3.5 | 9.6 | 0.00 | 0.00 | 0.00 | 52 | 1005.6 |
| 20260505024534 | 75 | 158 | 1.7 | 6.1 | 0.00 | 0.00 | 0.00 | 52 | 1005.5 |
| 20260505023533 | 75 | 113 | 0.9 | 10.4 | 0.00 | 0.00 | 0.00 | 52 | 1005.6 |
| 20260505023041 | 75 | 223 | 2.6 | 10.4 | 0.00 | 0.00 | 0.00 | 52 | 1005.5 |
| 20260505022534 | 76 | 176 | 0.0 | 7.8 | 0.00 | 0.00 | 0.00 | 52 | 1005.4 |
| 20260505022031 | 76 | 197 | 2.6 | 7.8 | 0.00 | 0.00 | 0.00 | 52 | 1005.4 |
| 20260505021532 | 76 | 123 | 0.9 | 6.1 | 0.00 | 0.00 | 0.00 | 52 | 1005.4 |
| 20260505021030 | 76 | 111 | 1.7 | 7.8 | 0.00 | 0.00 | 0.00 | 52 | 1005.2 |
| 20260505020529 | 76 | 136 | 1.7 | 7.8 | 0.00 | 0.00 | 0.00 | 52 | 1005.4 |
| 20260505020029 | 76 | 167 | 1.7 | 7.8 | 0.00 | 0.00 | 0.00 | 51 | 1005.2 |
| 20260505015528 | 76 | 134 | 0.9 | 5.2 | 0.00 | 0.00 | 0.00 | 51 | 1005.4 |
| 20260505015028 | 76 | 217 | 1.7 | 6.1 | 0.00 | 0.00 | 0.00 | 51 | 1005.2 |
| 20260505014535 | 76 | 86 | 1.7 | 6.1 | 0.00 | 0.00 | 0.00 | 51 | 1005.2 |
| 20260505013527 | 76 | 112 | 0.0 | 6.1 | 0.00 | 0.00 | 0.00 | 51 | 1005.3 |
| 20260505013023 | 76 | 146 | 1.7 | 11.3 | 0.00 | 0.00 | 0.00 | 51 | 1005.3 |
| 20260505012524 | 76 | 161 | 1.7 | 11.3 | 0.00 | 0.00 | 0.00 | 51 | 1005.4 |
| 20260505012022 | 77 | 88 | 1.7 | 5.2 | 0.00 | 0.00 | 0.00 | 50 | 1005.4 |
| 20260505011524 | 77 | 141 | 2.6 | 6.1 | 0.00 | 0.00 | 0.00 | 50 | 1005.2 |
| 20260505011020 | 77 | 229 | 1.7 | 6.1 | 0.00 | 0.00 | 0.00 | 50 | 1005.2 |
| 20260505010521 | 77 | 143 | 0.9 | 5.2 | 0.00 | 0.00 | 0.00 | 50 | 1005.2 |
| 20260505010021 | 77 | 193 | 1.7 | 6.1 | 0.00 | 0.00 | 0.00 | 50 | 1005.2 |
| 20260505005520 | 77 | 182 | 2.6 | 6.1 | 0.00 | 0.00 | 0.00 | 50 | 1005.1 |
| 20260505005020 | 77 | 183 | 0.9 | 7.8 | 0.00 | 0.00 | 0.00 | 49 | 1005.2 |
| 20260505004530 | 77 | 115 | 3.5 | 9.6 | 0.00 | 0.00 | 0.00 | 49 | 1005.2 |
| 20260505003520 | 77 | 128 | 4.3 | 9.6 | 0.00 | 0.00 | 0.00 | 48 | 1005.2 |
| 20260505003016 | 78 | 148 | 2.6 | 9.6 | 0.00 | 0.00 | 0.00 | 48 | 1005.2 |